Date String (YYYY-MM-DD hh:mm:ss) UTC,Instrument flags,Ambient pressure (hPa),Sample flow (lpm),Bypass flow (lpm),Sample temperature (°C),Ambient temperature (°C),ASC tube jacket temperature (°C),LED temperature (°C),Box temperature (°C),Sample RH (%),Span deviation,Mass concentration (μg/m³),Mass concentration (μg/m³),Mass concentration (μg/m³)
DateTimeUTC,F1_M11,P_M11,Q1_M11,Q2_M11,T1_M11,T2_M11,T3_M11,T4_M11,T5_M11,U1_M11,ZSPAN_M11,X0_M11,X2_M11,X1_M11
2022-02-07 20:00:00,,0831.0,5.00,0.00,26.5,25.8,00.0,35.3,28.4,09.3,0000.0,0011.06,0005.81,0005.40
2022-02-07 20:01:00,,0830.9,5.00,0.00,26.5,25.8,00.0,35.3,28.4,09.4,0000.0,0010.47,0005.84,0005.43
2022-02-07 20:02:00,,0831.0,4.99,0.00,26.5,25.8,00.0,35.3,28.4,08.8,0000.0,0010.35,0005.82,0005.44
2022-02-07 20:03:00,,0831.0,5.00,0.00,26.6,25.9,00.0,35.3,28.4,08.5,0000.0,0010.04,0005.80,0005.45
2022-02-07 20:04:00,,0830.9,5.02,0.00,26.6,25.9,00.0,35.4,28.5,08.3,0000.0,0009.88,0005.80,0005.46
2022-02-07 20:05:00,,0830.9,5.00,0.00,26.6,25.9,00.0,35.4,28.5,08.6,0000.0,0010.45,0005.77,0005.44
2022-02-07 20:06:00,,0830.9,4.99,0.00,26.6,25.9,00.0,35.4,28.5,08.3,0000.0,0011.50,0005.75,0005.44
2022-02-07 20:07:00,,0830.9,5.01,0.00,26.6,25.9,00.0,35.4,28.5,08.4,0000.0,0012.15,0005.75,0005.44
2022-02-07 20:08:00,,0830.9,4.99,0.00,26.6,26.0,00.0,35.5,28.5,08.6,0000.0,0012.02,0005.79,0005.45
2022-02-07 20:09:00,,0830.9,5.00,0.00,26.7,26.0,00.0,35.5,28.5,08.4,0000.0,0011.72,0005.80,0005.48
2022-02-07 20:10:00,,0830.9,4.99,0.00,26.7,26.0,00.0,35.5,28.6,09.0,0000.0,0011.72,0005.80,0005.48
2022-02-07 20:11:00,,0830.9,5.01,0.00,26.7,26.0,00.0,35.5,28.6,08.3,0000.0,0011.75,0005.79,0005.49
2022-02-07 20:12:00,,0830.9,4.99,0.00,26.7,26.0,00.0,35.5,28.6,08.2,0000.0,0011.74,0005.80,0005.51
2022-02-07 20:13:00,,0830.9,5.00,0.00,26.7,26.1,00.0,35.5,28.6,08.4,0000.0,0011.71,0005.83,0005.54
2022-02-07 20:14:00,,0831.0,5.00,0.00,26.7,26.1,00.0,35.6,28.6,08.3,0000.0,0011.88,0005.90,0005.56
2022-02-07 20:15:00,,0830.9,5.00,0.00,26.8,26.1,00.0,35.6,28.7,08.2,0000.0,0011.92,0005.93,0005.58
2022-02-07 20:16:00,,0830.9,5.02,0.00,26.8,26.1,00.0,35.6,28.7,08.3,0000.0,0011.27,0005.95,0005.61
2022-02-07 20:17:00,,0830.9,4.99,0.00,26.8,26.1,00.0,35.6,28.7,08.8,0000.0,0010.25,0006.00,0005.64
2022-02-07 20:18:00,,0830.9,5.01,0.00,26.8,26.1,00.0,35.6,28.7,09.0,0000.0,0009.41,0006.00,0005.64
2022-02-07 20:19:00,,0830.8,4.99,0.00,26.9,26.1,00.0,35.7,28.7,08.7,0000.0,0009.27,0006.05,0005.67
2022-02-07 20:20:00,,0830.9,4.98,0.00,26.9,26.1,00.0,35.7,28.7,08.6,0000.0,0009.27,0006.07,0005.68
2022-02-07 20:21:00,,0830.9,5.02,0.00,26.9,26.1,00.0,35.7,28.7,08.8,0000.0,0009.31,0006.08,0005.70
2022-02-07 20:22:00,,0830.9,5.01,0.00,26.9,26.1,00.0,35.7,28.7,08.9,0000.0,0009.30,0006.09,0005.71
2022-02-07 20:23:00,,0830.9,5.00,0.00,26.9,26.1,00.0,35.7,28.7,09.0,0000.0,0010.62,0006.14,0005.73
2022-02-07 20:24:00,,0830.8,5.01,0.00,26.9,26.2,00.0,35.8,28.8,09.2,0000.0,0011.36,0006.17,0005.74
2022-02-07 20:25:00,,0830.8,4.99,0.00,26.9,26.2,00.0,35.8,28.8,08.7,0000.0,0011.98,0006.17,0005.76
2022-02-07 20:26:00,,0830.8,5.00,0.00,26.9,26.2,00.0,35.8,28.8,08.9,0000.0,0012.47,0006.20,0005.78
2022-02-07 20:27:00,,0830.7,5.01,0.00,26.9,26.2,00.0,35.8,28.8,08.7,0000.0,0012.73,0006.27,0005.83
2022-02-07 20:28:00,,0830.7,4.99,0.00,26.9,26.2,00.0,35.8,28.8,09.1,0000.0,0012.78,0006.29,0005.87
2022-02-07 20:29:00,,0830.7,5.01,0.00,27.0,26.2,00.0,35.8,28.8,08.6,0000.0,0012.86,0006.34,0005.91
2022-02-07 20:30:00,,0830.7,5.00,0.00,27.0,26.3,00.0,35.8,28.8,08.4,0000.0,0012.84,0006.35,0005.95
2022-02-07 20:31:00,,0830.7,4.99,0.00,27.0,26.3,00.0,35.8,28.8,08.4,0000.0,0012.98,0006.42,0005.99
2022-02-07 20:32:00,,0830.7,5.01,0.00,27.0,26.3,00.0,35.9,28.9,08.6,0000.0,0012.96,0006.46,0006.03
2022-02-07 20:33:00,,0830.7,4.99,0.00,27.0,26.4,00.0,35.9,28.9,08.9,0000.0,0013.05,0006.53,0006.08
2022-02-07 20:34:00,,0830.7,5.01,0.00,27.1,26.4,00.0,35.9,28.9,08.2,0000.0,0012.05,0006.57,0006.14
2022-02-07 20:35:00,,0830.7,5.00,0.00,27.1,26.4,00.0,35.9,29.0,08.1,0000.0,0011.19,0006.60,0006.20
2022-02-07 20:36:00,,0830.6,5.00,0.00,27.1,26.4,00.0,35.9,29.0,08.1,0000.0,0010.72,0006.65,0006.26
2022-02-07 20:37:00,,0830.6,4.99,0.00,27.1,26.4,00.0,35.9,29.0,08.2,0000.0,0010.15,0006.70,0006.31
2022-02-07 20:38:00,,0830.6,5.02,0.00,27.1,26.5,00.0,36.0,29.0,08.0,0000.0,0010.01,0006.71,0006.35
2022-02-07 20:39:00,,0830.6,4.99,0.00,27.1,26.5,00.0,36.0,29.0,08.3,0000.0,0010.16,0006.73,0006.36
2022-02-07 20:40:00,,0830.6,5.00,0.00,27.2,26.5,00.0,36.0,29.1,08.4,0000.0,0010.33,0006.76,0006.38
2022-02-07 20:41:00,,0830.5,5.01,0.00,27.2,26.5,00.0,36.0,29.1,08.0,0000.0,0010.43,0006.77,0006.39
2022-02-07 20:42:00,,0830.6,4.99,0.00,27.2,26.5,00.0,36.0,29.1,07.9,0000.0,0010.51,0006.76,0006.40
2022-02-07 20:43:00,,0830.6,5.01,0.00,27.2,26.5,00.0,36.1,29.1,08.1,0000.0,0010.59,0006.77,0006.41
2022-02-07 20:44:00,,0830.5,5.00,0.00,27.3,26.5,00.0,36.1,29.1,08.2,0000.0,0011.26,0006.78,0006.41
2022-02-07 20:45:00,,0830.5,4.99,0.00,27.3,26.6,00.0,36.1,29.2,08.4,0000.0,0011.98,0006.79,0006.40
2022-02-07 20:46:00,,0830.6,5.02,0.00,27.3,26.6,00.0,36.1,29.2,08.7,0000.0,0012.50,0006.77,0006.39
2022-02-07 20:47:00,,0830.5,4.99,0.00,27.3,26.6,00.0,36.1,29.2,08.1,0000.0,0012.83,0006.76,0006.36
2022-02-07 20:48:00,,0830.5,5.02,0.00,27.3,26.6,00.0,36.1,29.2,08.0,0000.0,0013.18,0006.74,0006.33
2022-02-07 20:49:00,,0830.5,4.99,0.00,27.3,26.6,00.0,36.2,29.2,08.1,0000.0,0013.88,0006.76,0006.33
2022-02-07 20:50:00,,0830.3,5.00,0.00,27.3,26.6,00.0,36.2,29.2,08.0,0000.0,0013.42,0006.77,0006.35
2022-02-07 20:51:00,,0830.4,5.00,0.00,27.4,26.7,00.0,36.2,29.2,08.0,0000.0,0013.40,0006.78,0006.37
2022-02-07 20:52:00,,0830.4,5.00,0.00,27.4,26.7,00.0,36.2,29.2,08.0,0000.0,0013.46,0006.81,0006.40
2022-02-07 20:53:00,,0830.4,5.01,0.00,27.4,26.7,00.0,36.2,29.3,08.1,0000.0,0013.47,0006.83,0006.43
2022-02-07 20:54:00,,0830.4,4.98,0.00,27.4,26.7,00.0,36.2,29.3,08.4,0000.0,0013.50,0006.85,0006.44
2022-02-07 20:55:00,,0830.4,5.01,0.00,27.4,26.7,00.0,36.3,29.3,08.2,0000.0,0013.68,0006.83,0006.44
2022-02-07 20:56:00,,0830.4,4.99,0.00,27.5,26.7,00.0,36.3,29.4,08.2,0000.0,0013.04,0006.83,0006.44
2022-02-07 20:57:00,,0830.4,5.01,0.00,27.5,26.8,00.0,36.3,29.4,08.4,0000.0,0012.68,0006.84,0006.44
2022-02-07 20:58:00,,0830.4,5.00,0.00,27.5,26.8,00.0,36.3,29.4,08.3,0000.0,0012.41,0006.84,0006.44
2022-02-07 20:59:00,,0830.4,4.99,0.00,27.5,26.8,00.0,36.3,29.4,08.1,0000.0,0012.22,0006.82,0006.42
